SCP
0 0 0 0 0 0 0 0 0 0 0 0 0 0 0 0 0 0 0 0 0 0 0 0 0 0 0 0 0 0 0 0 0 0 0 0 0 0
0 0 0 0 0 0 0 0 0 0 0 0 0 0 0 0 0 0 0 0 0 0 0 0 0 0 0 0 0 0 0 0 0 0 0 0 0 0
0 0 0 0 0 0 0 0 0 0 0 0 0 0 0 0 0 0 0 0 0 0 0 0 0 0 0 0 0 0 0 0 0 0 0 0 0 0
0 0 0 0 0 0 0 0 0 0 0 0 0 0 0 0 0 0 0 0 0 0 0 0 0 0 0 0 0 0 0 0 0 0 0 0 0 0
0 0 0 0 0 0 0 0 0 0 0 0 0 0 0 0 0 0 0 0 0 0 0 0 0 0 0 0 0 0 0 0 0 0 0 0 0 0
0 0 0 0 0 0 0 0 0 0 0 0 0 0 0 0 0 0 0 0 0 0 0 0 0 0 0 0 0 0 0 0 0 0 0 0 0 0
0 0 0 0 0 0 0 0 0 0 0 0 0 0 0 0 0 0 0 0 0 0 0 0 0 0 0 0 0 0 0 0 0 0 0 0 0 0
0 0 0 0 0 0 0 0 0 0 0 0 0 0 0 0 0 0 0 0 0 0 0 0 0 0 0 0 0 0 0 0 0 0 0 0 0 0
0 0 0 0 0 0 0 0 0 0 0 0 0 0 0 0 0 0 0 0 0 0 0 0 0 0 0 0 0 0 0 0 0 0 0 0 0 0
0 0 0 0 0 0 0 0 0 0 0 0 0 0 0 0 0 0 0 0 0 0 0 0 0 0 0 0 0 0 0 0 0 0 -0 0 0 0
0 0 0 0 0 0 0 0 0 0 0 0 0 0 0 0 0 0 0 0 0 0 0 0 0 0 0 0 0 0 0 0 0 0 0 0 0 0
0 0 0 0 0 0 0 0 0 0 0 0 0 0 0 0 0 0 0 0 0 0 0 0 0 0 0 0 0 0 0 0 0 0 0 0 0 0
0 0 0 0 0 0 0 0 0 0 0 0 0 0 0 0 0 0 0 0 0 0 0 0 0 0 0 0 0 0 0 0 0 0 0 0 0 0
0 0 0 0 0 0 0 0 0 0 0 0 0 0 0 0 0 0 0 0 0 0 0 0 0 0 0 0 0 0 0 0 0 0 0 0 0 0
0 0 0 0 0 0 0 0 0 0 0 0 0 0 0 0 0 0 0 0 0 0 0 0 0 0 0 0 0 0 0 0 0 0 0 0 0 0
0 0 0 0 0 0 0 0 0 0 0 0 0 0 0 0 0 0 0 0 0 0 0 0 0 0 0 0 0 0 0 0 0 0 0 0 0 0
0 0 0 0 0 0 0 0 0 0 0 0 0 0 0 0 0 0 0 0 0 0 0 0 0 0 0 0 0 0 0 0 0 0 0 0 0 0
0 0 0 0 0 0 0 0 0 0 0 0 0 0 0 0 0 0 0 0 0 0 0 0 0 0 0 0 0 0 0 0 0 0 0 0 0 0
0 0 0 0 0 0 0 0 0 0 0 0 0 0 0 0 0 0 0 0 0 0 0 0 0 0 0 0 0 0 0 0 0 0 0 0 0 0
0 0 0 0 0 0 0 0 0 0 0 0 0 0 0 0 0 0 0 0 0 0 0 0 0 0 0 0 0 0 0 0 0 0 0 0 0 0
0 0 0 0 0 0 0 0 0 0 0 0 0 0 0 0 0 0 0 0 0 0 0 0 0 0 0 0 0 0 0 0 0 0 0 0 0 0
0 0 0 0 0 0 0 0 0 0 0 0 0 0 0 0 0 0 0 0 0 0 0 0 0 0 0 0 0 0 0 0 0 0 0 0 0 0
0 0 0 0 0 0 0 0 0 0 0 0 0 0 0 0 0 0 0 0 0 0 0 0 0 0 0 0 0 0 0 0 0 0 0 0 0 0
Wind_Speed
2 2 1 2 2 1 2 2 2 2 3 3 2 2 2 2 2 2 3 5 6 6 6 7 6 7 7 7 7 8 8 8 8 8 8 8 9 10
1 1 2 2 2 1 1 1 2 3 3 3 2 2 2 2 3 3 4 5 6 6 7 7 6 6 7 7 7 8 8 8 8 8 8 8 8 9
1 1 2 2 1 2 1 1 1 2 3 3 2 2 2 3 2 2 2 3 4 7 6 7 7 7 7 7 8 7 7 7 7 7 8 7 8 9
2 1 2 2 2 1 1 1 2 2 2 3 2 2 2 3 2 2 2 3 3 6 7 7 7 7 8 8 8 7 7 8 8 8 8 8 8 9
2 2 2 1 2 2 1 1 2 2 1 2 3 2 2 2 2 3 3 2 3 4 6 7 8 8 8 8 8 8 8 8 8 8 8 8 8 9
1 1 1 1 1 2 2 2 2 2 1 1 2 2 2 2 1 2 2 2 3 3 3 4 6 7 8 9 8 8 8 9 9 9 9 9 8 8
1 1 1 1 1 1 2 2 1 1 2 2 2 2 2 2 2 2 2 3 3 3 2 3 2 3 4 7 8 9 9 9 9 9 9 9 8 8
1 2 2 1 2 3 4 3 2 2 3 2 2 3 4 3 2 2 2 2 3 2 1 3 2 3 4 4 6 8 8 9 9 9 8 8 8 8
2 2 2 2 2 2 4 5 4 4 4 4 4 4 4 4 3 3 3 3 4 3 1 3 2 3 4 5 7 8 8 8 8 8 8 8 8 8
2 2 2 2 3 2 3 3 4 4 4 3 4 6 5 5 4 4 4 4 4 3 2 3 3 3 4 3 6 8 8 7 7 7 8 8 7 7
2 2 1 2 4 3 2 3 5 5 5 5 6 6 6 6 4 1 1 1 3 3 2 2 2 3 3 3 4 5 6 6 7 7 7 7 7 6
2 2 2 3 4 2 1 2 4 5 5 6 5 5 4 5 5 4 4 3 2 3 3 2 2 1 2 2 2 2 2 4 5 6 7 6 6 3
2 3 3 5 5 4 3 3 5 5 4 3 4 4 3 3 3 3 3 4 3 4 3 2 2 1 2 3 3 2 2 2 2 3 5 6 6 4
3 3 4 6 5 6 3 4 5 3 2 2 2 3 3 3 3 3 4 4 5 5 4 2 2 2 2 2 3 2 2 2 2 2 2 3 4 6
3 4 5 6 5 4 5 5 3 1 1 2 3 3 3 4 3 3 3 3 3 4 3 3 3 3 3 3 3 2 2 3 2 2 2 2 3 2
3 4 5 5 4 4 4 3 2 2 2 2 3 3 3 3 2 2 2 2 2 3 3 3 3 3 2 3 3 3 3 2 2 2 2 2 2 2
1 1 2 2 2 2 2 2 2 2 2 2 2 3 3 3 3 2 2 2 2 3 3 3 2 2 3 3 2 3 2 2 3 2 1 2 3 3
1 1 2 2 3 3 3 3 2 2 3 3 2 2 3 3 3 3 2 2 2 3 3 3 1 2 2 3 3 3 3 3 3 2 2 2 3 3
1 2 3 3 3 3 3 2 3 3 3 2 2 3 3 3 2 3 2 2 3 3 3 2 2 1 2 3 4 3 3 3 2 2 2 3 4 4
1 2 3 3 3 3 3 3 3 3 2 2 2 3 3 2 2 3 3 3 3 3 3 3 2 2 3 4 3 4 4 3 3 3 2 2 2 3
3 3 3 3 3 3 3 3 2 2 3 2 3 3 3 2 2 3 3 4 3 3 3 4 4 4 2 1 1 3 3 4 4 3 2 1 2 2
3 3 3 3 3 2 2 2 2 2 2 2 3 3 2 2 3 4 3 3 3 3 4 3 3 2 1 2 3 3 3 3 2 2 2 3 3 4
3 2 2 2 2 2 2 2 2 2 2 2 2 3 3 3 3 3 3 3 3 4 3 3 2 2 2 2 2 3 3 3 2 2 3 5 4 4
Wind_Direction
238 237 246 265 262 240 212 189 191 254 278 272 271 273 264 248 237 232 237 239 229 226 229 234 238 240 241 246 247 248 248 249 251 249 250 252 252 251
239 253 270 273 276 273 248 230 197 202 248 261 252 269 276 277 255 238 233 237 231 228 228 231 237 240 240 245 249 250 246 245 246 247 247 250 252 253
269 246 269 273 273 277 256 244 229 190 236 271 263 280 278 285 293 262 240 234 244 236 233 237 240 247 247 250 249 248 247 246 246 248 249 251 251 252
259 258 274 295 299 284 271 270 257 218 213 261 281 283 267 274 279 279 270 254 246 243 238 242 243 249 249 249 246 244 246 247 248 249 252 256 257 254
237 232 257 298 305 298 288 278 264 259 222 232 268 273 271 284 303 295 289 282 264 253 244 249 246 246 247 249 249 244 245 248 249 248 249 252 257 258
242 228 245 238 256 277 283 273 266 266 255 245 263 273 272 280 292 286 303 295 284 278 263 257 248 245 250 252 251 248 248 249 249 247 245 244 250 254
281 258 252 258 279 284 306 284 280 270 261 248 255 267 273 287 274 264 280 289 281 263 265 266 247 243 251 252 251 252 249 247 248 246 243 242 244 248
284 292 285 280 301 313 312 301 267 245 250 245 245 251 259 254 258 264 272 299 292 274 242 272 244 252 254 245 246 248 251 250 248 247 244 244 243 241
275 285 296 312 316 322 316 316 305 287 246 222 235 241 243 240 237 256 254 250 254 261 250 273 264 263 264 262 247 247 250 251 250 250 248 243 243 245
288 265 267 289 312 320 313 319 310 303 282 247 230 240 242 240 223 227 240 260 272 269 216 248 262 265 279 270 251 248 252 251 249 252 250 245 244 249
312 304 277 285 304 319 320 312 312 306 299 292 275 264 264 264 243 217 251 270 284 277 234 218 257 276 282 276 267 258 258 252 247 249 251 246 241 243
305 300 286 293 305 309 275 283 295 297 309 315 308 299 283 275 257 214 208 225 260 270 245 207 245 266 295 280 279 274 259 256 249 248 250 245 238 230
287 295 293 301 305 303 289 253 267 281 295 296 300 302 299 282 271 248 221 210 226 251 248 202 234 238 234 281 297 282 265 268 261 259 249 242 232 217
259 274 284 296 301 303 299 293 297 301 302 313 310 300 294 286 279 270 250 240 235 241 244 214 219 220 229 264 277 288 291 267 248 253 246 243 237 231
259 279 295 303 302 300 302 305 310 315 316 309 297 286 280 276 282 285 280 271 278 267 254 230 221 225 218 228 243 259 288 285 246 237 244 238 235 224
285 297 300 300 297 295 307 309 296 270 247 259 277 285 297 305 295 290 293 295 299 297 297 269 232 211 233 240 232 254 251 248 264 256 242 256 249 227
271 312 331 328 326 319 311 297 293 302 284 275 276 295 307 306 295 294 291 294 282 284 302 309 293 255 233 224 237 247 253 257 247 246 251 271 264 242
170 254 270 271 273 277 279 286 282 275 273 269 271 276 284 290 296 303 299 295 292 284 286 287 305 342 347 314 236 221 238 252 256 242 227 250 267 261
176 251 260 260 262 267 266 264 267 273 273 271 269 274 278 282 290 300 301 299 294 289 286 284 279 263 286 293 287 241 229 250 251 260 242 241 251 258
221 246 258 262 259 264 267 268 272 285 288 283 275 275 276 282 294 294 291 287 286 291 297 296 278 253 240 249 260 281 259 228 229 242 254 270 272 277
243 250 248 246 249 255 268 273 272 277 283 281 281 278 276 282 290 291 290 288 285 282 283 282 277 277 269 259 285 292 290 266 240 229 220 222 266 263
254 255 254 246 242 243 250 264 277 282 292 292 290 288 287 283 278 281 285 285 279 273 274 279 290 302 281 247 263 277 292 310 307 304 267 224 204 209
258 254 256 262 254 244 237 241 245 260 271 286 291 292 293 287 281 277 282 279 277 277 279 289 298 297 280 252 259 275 279 286 303 328 325 325 281 249